Regional Weather Roundup
Issued by NWS Jackson, KY

Home | Current Version | Previous Version | Text Only | Print | Product List | Glossary On
Versions: 1 2 3 4 5 6 7 8 9 10 11 12 13 14 15 16 17 18 19 20 21 22 23 24 25 26 27 28 29 30 31 32 33 34 35 36 37 38 39 40 41 42 43 44 45 46 47
000
ASUS43 KJKL 280010
RWRJKL

EAST KENTUCKY HOURLY WEATHER ROUNDUP
NATIONAL WEATHER SERVICE JACKSON KY
800 PM EDT MON APR 27 2015

NOTE: "FAIR" INDICATES FEW OR NO CLOUDS BELOW 12,000 FEET WITH
NO SIGNIFICANT WEATHER AND/OR OBSTRUCTIONS TO VISIBILITY.

* THESE REPORTS ARE NOT UNDER NWS QUALITY CONTROL AND MAY NOT
  REPORT WEATHER SUCH AS PRECIPITATION AND FOG.

KYZ079-080-083-085-087-088-110-112-115-119-120-280100
...EASTERN KENTUCKY...

CITY           SKY/WX    TMP DP  RH WIND       PRES   REMARKS
JACKSON        CLOUDY    56  33  42 NW5       29.95S
6HR MIN TEMP:  56; 6HR MAX TEMP:  62;

LONDON         CLEAR     60  31  33 N6        29.95F
6HR MIN TEMP:  60; 6HR MAX TEMP:  65;

SOMERSET*      CLEAR     55  36  47 NE6       29.97S
MONTICELLO*    CLEAR     61  38  42 N7        29.98S
6HR MIN TEMP:  61; 6HR MAX TEMP:  67;

MIDDLESBORO*   CLEAR     59  34  39 N8        29.94S
6HR MIN TEMP:  59; 6HR MAX TEMP:  64;

HARLAN APT*    MOCLDY    59  28  31 NE3       29.94S
HAZARD APT*    CLEAR     57  32  38 NW3       29.95S
BLACK MTN*       N/A     43  30  61 N9          N/A
PIKEVILLE APT* CLOUDY    55  32  41 NW6       29.94S
BIG SANDY*     CLOUDY    57  33  39 NW3       29.94S
6HR MIN TEMP:  57; 6HR MAX TEMP:  61;

MOREHEAD APT*  PTCLDY    57  34  41 N8        29.97S
$$

KYZ035-036-041-042-044-050-067-078-099-280100
...CENTRAL KENTUCKY...

CITY           SKY/WX    TMP DP  RH WIND       PRES   REMARKS
MT STERLING*   PTCLDY    57  36  44 N7        29.97S
FLEMING/MASON* PTCLDY    54  37  54 NE10      29.99R
DANVILLE*      CLEAR     55  36  47 N8        29.98R
RICHMOND*      CLOUDY    61  36  39 N5        29.96R
LEXINGTON      PTCLDY    57  37  47 N10       29.97R
6HR MIN TEMP:  57; 6HR MAX TEMP:  63;

FRANKFORT      PTCLDY    59  35  40 NW10      29.97R
6HR MIN TEMP:  59; 6HR MAX TEMP:  64;

$$

KYZ091>093-OHZ055-061-077-WVZ005-015-034-035-042-280100
...SOUTHERN OHIO/WEST VIRGINIA...

CITY           SKY/WX    TMP DP  RH WIND       PRES   REMARKS
COVINGTON      CLOUDY    55  38  52 N13       30.01R
COLUMBUS       PTCLDY    47  35  63 N8        30.03R
DAYTON         CLOUDY    50  37  61 NE13      30.04R
WILMINGTON     CLOUDY    49  37  63 NE14      30.02R
HUNTINGTON     MOCLDY    56  36  47 N7        29.95R
CHARLESTON     MOCLDY    54  33  45 N12       29.95R
PINEVILLE*     CLOUDY    53  36  53 MISG      29.98S
BECKLEY        CLOUDY    49  30  48 NW9       29.93R
BLUEFIELD      MOCLDY    50  28  42 NW7       29.93R
$$

VAZ002-007-008-TNZ017-027-036-066-071-280100
...SOUTHWEST VIRGINIA/EAST TENNESSEE...

CITY           SKY/WX    TMP DP  RH WIND       PRES   REMARKS
WISE*          PTCLDY    52  28  40 NW3       29.95S
JONESVILLE*    PTCLDY    57  32  38 N7        29.95S
ABINGDON*      PTCLDY    55  29  37 CALM      29.93S
BRISTOL        PTCLDY    56  31  38 N6        29.92S
KNOXVILLE      PTCLDY    60  34  37 NE12      29.91R
OAK RIDGE      CLEAR     64  36  35 CALM      29.92S
CROSSVILLE     CLEAR     59  34  39 N7        29.94S
NASHVILLE      PTCLDY    62  39  42 N10       29.94F
$$

...KEY TO REMARKS...
VSB - VISIBILITY IN MILES
WCI - WIND CHILL INDEX
HX  - HEAT INDEX

$$


USA.gov is the U.S. government's official web portal to all federal, state and local government web resources and services.